[[{"header":{"parameterUnit":"m.s-1","parameterCategory":1,"la1":30.2991,"la2":30.254,"lo1":-89.0895,"lo2":-89.0444,"dy":0.0017,"dx":0.0017,"nx":28,"ny":28,"refTime":"2024-05-18T09:00:00:Z","depth":0,"parameterNumber":2,"parameterNumberName":"U-component_of_WINDS"},"data":[0,0,0,0,0,0,0,0,0,0,0,0,0,0,0,0,0,0,0,0,0,0,0,0,0,0,0,0,0,0,0,0,0,0,0,0,0,0,0,0,0,0,0,0,0,0,0,0,0,0,0,0,0,0,0,0,0,0,0.6429,0.643,0,0.6573,0.6575,0.6576,0.6614,0.6613,0.6612,0.6611,0.676,0.6765,0.677,0,0,0,0,0,0,0,0,0,0,0,0,0,0.6186,0.6191,0.6429,0.6431,0.6432,0.6573,0.6575,0.6577,0.6614,0.6613,0.6612,0.6611,0.6759,0.6764,0.677,0,0,0,0,0,0,0,0,0,0,0,0,0,0.6307,0.6192,0.6428,0.6468,0.6473,0.6572,0.6575,0.6577,0.6614,0.6613,0.6611,0.661,0.6757,0.6764,0.6771,0.6842,0,0,0.6793,0.6796,0,0,0,0,0,0,0,0,0.63,0.6316,0.646,0.6465,0.6471,0.6574,0.6544,0.6666,0.6614,0.6561,0.6611,0.661,0.6699,0.6711,0.6741,0.6849,0.6855,0.6793,0.6798,0.6801,0.6803,0,0,0,0,0,0,0,0.6292,0.631,0.6486,0.6462,0.6469,0.6479,0.6494,0.6567,0.6636,0.6565,0.6568,0.6585,0.6702,0.6734,0.6745,0.6857,0.6793,0.68,0.6804,0.6807,0.703,0.7032,0,0,0,0,0,0,0.6277,0.6303,0.6481,0.649,0.6381,0.6484,0.6502,0.6542,0.6635,0.6648,0.6586,0.6586,0.6723,0.6737,0.675,0.684,0.6801,0.6808,0.6812,0.7029,0.7031,0.7032,0,0,0,0,0,0,0.6271,0.6292,0.6475,0.6397,0.6421,0.649,0.6535,0.6546,0.6578,0.665,0.6663,0.6606,0.6722,0.674,0.6819,0.6845,0.6811,0.6817,0.7027,0.7029,0.7032,0.7019,0,0,0,0,0,0,0.6264,0.629,0.6318,0.6398,0.6425,0.6541,0.6537,0.655,0.659,0.6592,0.6673,0.6685,0.6722,0.6808,0.6826,0.6855,0.6823,0.7025,0.7028,0.7031,0.7017,0.702,0.7023,0,0,0,0,0,0.6255,0.6309,0.6319,0.634,0.6461,0.6543,0.6558,0.66,0.6592,0.6621,0.6667,0.6682,0.6839,0.6815,0.6836,0.6868,0.7023,0.7027,0.7031,0.7016,0.702,0.7023,0,0,0,0,0,0,0.623,0.632,0.6332,0.6413,0.647,0.6549,0.6586,0.6603,0.6664,0.6663,0.6712,0.673,0.6806,0.6844,0.6816,0.6941,0.6931,0.6939,0.6913,0.6918,0.6921,0.691,0.6829,0,0,0,0,0,0.6234,0.6292,0.6367,0.6431,0.6459,0.6517,0.6554,0.6581,0.6643,0.6667,0.6719,0.6778,0.6841,0.6881,0.6943,0.7023,0.7041,0.7054,0.7057,0.706,0.7066,0.7111,0.7118,0.7044,0.7044,0.7044,0,0,0.6243,0.6299,0.6333,0.6428,0.6475,0.6534,0.6538,0.66,0.6645,0.6677,0.6754,0.6794,0.6863,0.6942,0.698,0.6977,0.709,0.7064,0.7065,0.7071,0.7115,0.7122,0.7128,0.7047,0.7046,0.7046,0,0,0.6289,0.6337,0.6395,0.6443,0.6514,0.6552,0.6566,0.6643,0.667,0.6748,0.6773,0.6827,0.6934,0.6982,0.7021,0.7084,0.7101,0.7103,0.7119,0.7162,0.7168,0.7174,0.7196,0.7204,0.7109,0.7109,0.7109,0,0.6291,0.6381,0.6423,0.6485,0.6526,0.6557,0.6617,0.666,0.6748,0.6776,0.6771,0.6906,0.6955,0.7045,0.7061,0.7091,0.7108,0.7094,0.7164,0.717,0.7175,0.7198,0.7206,0.7109,0.7109,0.7109,0.7109,0,0.638,0.6442,0.6481,0.6564,0.661,0.667,0.6722,0.6763,0.6785,0.6824,0.6903,0.6962,0.7036,0.706,0.7083,0.7154,0.715,0.7154,0.7145,0.7181,0.7203,0.7212,0.7108,0.7108,0.7108,0.7109,0,0,0.6415,0.6521,0.6534,0.6573,0.6653,0.6702,0.6764,0.6836,0.687,0.6929,0.6982,0.7071,0.7075,0.7119,0.7148,0.7185,0.7232,0.7185,0.7187,0.7192,0.7314,0.7311,0.732,0.7243,0.7244,0.7246,0.7308,0,0.6471,0.6582,0.6622,0.6714,0.6772,0.6801,0.6855,0.691,0.6948,0.7002,0.7044,0.7107,0.7107,0.7133,0.7172,0.7218,0.7257,0.7214,0.7293,0.7295,0.7275,0.7331,0.7329,0.7384,0.7317,0.7318,0.7319,0,0.6552,0.6612,0.6709,0.6782,0.6808,0.6856,0.6925,0.6977,0.704,0.7064,0.7112,0.7138,0.7204,0.7191,0.7282,0.7251,0.7286,0.7313,0.7316,0.7326,0.731,0.7343,0.7403,0.7411,0.7333,0.7332,0.7331,0,0.6569,0.6674,0.6745,0.6777,0.6864,0.6897,0.6934,0.6996,0.7037,0.7097,0.7124,0.7191,0.7228,0.7279,0.7322,0.7309,0.741,0.74,0.7432,0.7431,0.7453,0.7451,0.752,0.7474,0.7474,0.7474,0.7474,0,0.6628,0.6686,0.6754,0.6798,0.6864,0.6909,0.6973,0.7013,0.7067,0.712,0.7149,0.7198,0.7252,0.7307,0.7342,0.7412,0.7428,0.745,0.7459,0.7448,0.7445,0.7472,0.7469,0.7476,0.7476,0.7475,0.7475,0,0.6658,0.6705,0.6785,0.6861,0.6881,0.6927,0.6991,0.7035,0.7074,0.7139,0.7158,0.7218,0.7285,0.7333,0.7419,0.7442,0.7518,0.7526,0.7496,0.7501,0.753,0.7527,0.7619,0.7634,0.7577,0.7578,0.7578,0,0.6693,0.6738,0.6818,0.6855,0.6893,0.6952,0.6994,0.704,0.7081,0.7156,0.7191,0.726,0.7318,0.7423,0.7475,0.7541,0.7551,0.7579,0.7561,0.7549,0.7552,0.7549,0.7554,0.7581,0.7582,0.7582,0.7582,0,0.675,0.6771,0.6829,0.6896,0.6944,0.6999,0.7054,0.7083,0.7139,0.7184,0.7253,0.7297,0.7385,0.7453,0.7524,0.7563,0.7582,0.7587,0.7598,0.7588,0.7569,0.758,0.7504,0.7585,0.7585,0.7585,0.7585,0.7585,0.6784,0.6825,0.6888,0.6952,0.6999,0.7049,0.7094,0.7138,0.7196,0.7271,0.7294,0.7365,0.7427,0.7524,0.7564,0.762,0.7619,0.7635,0.7639,0.7642,0.7642,0.756,0.7633,0.7633,0.7633,0.7633,0.7633,0,0.6843,0.6884,0.6943,0.7019,0.7069,0.7082,0.7144,0.7185,0.7247,0.7303,0.7358,0.7437,0.7503,0.7559,0.7627,0.7661,0.7672,0.7678,0.7676,0.7685,0.7639,0.7622,0.7668,0.7668,0.7668,0.7668,0.7668,0.7668,0.6879,0.6951,0.6979,0.7073,0.7115,0.7185,0.7219,0.7265,0.731,0.7396,0.7451,0.7487,0.7543,0.7616,0.7676,0.7691,0.7715,0.7719,0.7736,0.7692,0.7688,0.7684,0.7669,0.7724,0.7724,0.7778,0.7778,0.7778]},{"header":{"parameterUnit":"m.s-1","parameterCategory":1,"la1":30.2991,"la2":30.254,"lo1":-89.0895,"lo2":-89.0444,"dy":0.0017,"dx":0.0017,"nx":28,"ny":28,"refTime":"2024-05-18T09:00:00:Z","depth":0,"parameterNumber":3,"parameterNumberName":"V-component_of_WINDS"},"data":[0,0,0,0,0,0,0,0,0,0,0,0,0,0,0,0,0,0,0,0,0,0,0,0,0,0,0,0,0,0,0,0,0,0,0,0,0,0,0,0,0,0,0,0,0,0,0,0,0,0,0,0,0,0,0,0,0,0,4.4751,4.4753,0,4.4911,4.4913,4.4915,4.4924,4.4922,4.492,4.4919,4.5079,4.5084,4.509,0,0,0,0,0,0,0,0,0,0,0,0,0,4.4448,4.4454,4.4751,4.4753,4.4755,4.4911,4.4913,4.4915,4.4924,4.4922,4.492,4.4918,4.5077,4.5084,4.5091,0,0,0,0,0,0,0,0,0,0,0,0,0,4.4591,4.4455,4.4751,4.4779,4.4783,4.491,4.4913,4.4916,4.4925,4.4922,4.4919,4.4917,4.5074,4.5083,4.5092,4.5201,0,0,4.5119,4.5123,0,0,0,0,0,0,0,0,4.4583,4.4602,4.4772,4.4777,4.4782,4.4895,4.4865,4.5011,4.4926,4.4871,4.4919,4.4916,4.5019,4.5033,4.5068,4.5209,4.5216,4.512,4.5125,4.5129,4.5132,0,0,0,0,0,0,0,4.4573,4.4595,4.4814,4.4775,4.4781,4.4781,4.4798,4.4893,4.4958,4.4875,4.4876,4.4895,4.5021,4.506,4.5072,4.5218,4.512,4.5127,4.5133,4.5136,4.5453,4.5456,0,0,0,0,0,0,4.4558,4.4587,4.4809,4.4819,4.4674,4.4789,4.4808,4.4861,4.4957,4.4969,4.4898,4.4895,4.5046,4.5062,4.5078,4.5212,4.5129,4.5137,4.5142,4.545,4.5454,4.5457,0,0,0,0,0,0,4.4552,4.4578,4.4803,4.4703,4.4732,4.4797,4.4856,4.4866,4.4904,4.4974,4.4985,4.4925,4.5044,4.5065,4.517,4.5217,4.5141,4.5149,4.5447,4.5452,4.5456,4.548,0,0,0,0,0,0,4.4543,4.4576,4.462,4.4704,4.4737,4.4894,4.4859,4.4871,4.492,4.4919,4.5003,4.5014,4.5044,4.5157,4.5179,4.5228,4.5156,4.5443,4.5449,4.5454,4.5475,4.5485,4.5493,0,0,0,0,0,4.4532,4.462,4.4622,4.4648,4.4794,4.4897,4.4916,4.4949,4.4924,4.4968,4.5012,4.5012,4.5208,4.5168,4.5193,4.5245,4.544,4.5447,4.5454,4.5471,4.5483,4.5493,0,0,0,0,0,0,4.4538,4.4631,4.4635,4.4752,4.4817,4.4898,4.4955,4.496,4.5032,4.5028,4.5065,4.5083,4.5187,4.5226,4.5179,4.5355,4.5321,4.5333,4.5326,4.5338,4.5346,4.5335,4.5164,0,0,0,0,0,4.4553,4.463,4.4707,4.4803,4.4836,4.4889,4.4936,4.4956,4.5023,4.505,4.5102,4.5167,4.5243,4.5292,4.5366,4.5481,4.5498,4.5529,4.5537,4.5544,4.5555,4.5617,4.5631,4.548,4.548,4.548,0,0,4.4584,4.4645,4.4692,4.4806,4.4858,4.4936,4.4912,4.4996,4.5054,4.5062,4.5165,4.5205,4.5279,4.5389,4.544,4.5425,4.56,4.5553,4.5558,4.5565,4.5625,4.5639,4.5652,4.5485,4.5484,4.5483,0,0,4.4682,4.4736,4.4822,4.4875,4.4954,4.4989,4.5009,4.509,4.5117,4.5221,4.5229,4.5296,4.5427,4.5479,4.5523,4.5637,4.5639,4.566,4.5706,4.5766,4.5778,4.5789,4.5829,4.5843,4.567,4.567,4.567,0,4.4711,4.4831,4.4865,4.4949,4.4998,4.501,4.5096,4.5144,4.5243,4.5276,4.5258,4.5421,4.5472,4.5593,4.5621,4.5656,4.5679,4.5651,4.5774,4.5785,4.5795,4.5834,4.5849,4.5672,4.5671,4.5671,4.5671,0,4.4862,4.4944,4.5003,4.51,4.5155,4.524,4.5285,4.5336,4.5351,4.5386,4.549,4.5551,4.5637,4.5667,4.5682,4.579,4.5778,4.5766,4.5733,4.5811,4.5848,4.5863,4.5675,4.5674,4.5673,4.5673,0,0,4.497,4.5083,4.5104,4.5147,4.5234,4.5298,4.5381,4.5466,4.5509,4.5576,4.5646,4.5755,4.5744,4.5793,4.5813,4.5866,4.5951,4.5848,4.585,4.5864,4.6073,4.6081,4.6098,4.5952,4.5955,4.5958,4.6067,0,4.5077,4.5228,4.526,4.539,4.5465,4.5476,4.5548,4.5608,4.5643,4.5711,4.5749,4.5825,4.5806,4.5835,4.5888,4.593,4.5994,4.5922,4.6017,4.602,4.5999,4.6118,4.6128,4.6227,4.6081,4.6084,4.6085,0,4.5223,4.5294,4.5432,4.5508,4.554,4.5605,4.5684,4.5749,4.5816,4.5838,4.5892,4.5906,4.5991,4.5953,4.6069,4.602,4.606,4.6086,4.609,4.6101,4.6058,4.6131,4.626,4.6275,4.6109,4.6107,4.6105,0,4.5287,4.5417,4.5516,4.5552,4.5644,4.5689,4.5728,4.5793,4.5841,4.591,4.5941,4.6018,4.606,4.6118,4.6151,4.612,4.6264,4.6229,4.6284,4.6283,4.6314,4.6312,4.6451,4.6339,4.6339,4.6339,4.6339,0,4.5404,4.5488,4.5546,4.5607,4.57,4.5734,4.5824,4.5863,4.5921,4.5987,4.6001,4.6063,4.6103,4.617,4.6196,4.6288,4.6306,4.6325,4.6331,4.6324,4.6322,4.6352,4.6346,4.6343,4.6342,4.6341,4.6341,0,4.5493,4.5535,4.5643,4.572,4.5741,4.5806,4.5871,4.5929,4.5963,4.6048,4.6069,4.6123,4.6202,4.6241,4.6339,4.6357,4.646,4.6462,4.6438,4.6441,4.6493,4.6487,4.6656,4.668,4.6552,4.6553,4.6554,0,4.5565,4.5629,4.5713,4.5759,4.58,4.5875,4.5924,4.5959,4.6009,4.609,4.6138,4.6218,4.6284,4.641,4.6456,4.6531,4.6534,4.6588,4.6546,4.6536,4.6535,4.6531,4.6537,4.6596,4.6598,4.6599,4.6599,0,4.5688,4.5706,4.5777,4.5856,4.5914,4.5977,4.6039,4.6075,4.612,4.6175,4.6257,4.6309,4.6409,4.6488,4.6565,4.6604,4.6609,4.6612,4.6629,4.6623,4.6606,4.6615,4.6459,4.6608,4.6608,4.6607,4.6606,4.6606,4.5771,4.5828,4.5896,4.5974,4.6024,4.6081,4.614,4.6181,4.625,4.6336,4.6351,4.6438,4.65,4.6605,4.6646,4.6713,4.6701,4.6725,4.6731,4.6736,4.6739,4.6595,4.6727,4.6727,4.6727,4.6726,4.6726,0,4.5895,4.5938,4.601,4.6096,4.6157,4.6157,4.6225,4.6275,4.6352,4.6411,4.6476,4.6568,4.6644,4.6696,4.6772,4.6816,4.682,4.6834,4.6832,4.684,4.6746,4.6724,4.683,4.683,4.683,4.683,4.683,4.683,4.5967,4.6063,4.6088,4.6209,4.6251,4.6337,4.6376,4.6427,4.6474,4.6578,4.6642,4.6675,4.673,4.681,4.6879,4.6892,4.6919,4.6935,4.6947,4.6858,4.6847,4.6837,4.6816,4.694,4.6941,4.7037,4.7037,4.7038]}]]